Flag Weather past 2 weeks in Sterling Heights, Michigan, U.S.A.

Now
32 °F

Mostly cloudy.


Feels Like: 22 °F
Forecast: 30 / 42 °F
Wind: 13 mph from South

Location: Selfridge Air National Guard Base

Current Time: Nov 29, 2014 at 1:48:44 AM

Latest Report: Nov 29, 2014 at 12:59 AM


Visibility: 10 mi

Pressure: 30.05 "Hg

Humidity: 80%

Dew point: 27 °F

Location of Sterling HeightsLocation

Historic Weather in Sterling Heights — Graph

°F

Sterling Heights temperature yesterday

Maximum temperature yesterday: 30 °F (at 11:58 PM)
Minimum temperature yesterday: 18 °F (at 4:58 AM)
Average temperature yesterday: 24 °F

Past Weeks' High & Low Weather Summary

 TemperatureHumidityPressure
High58 °F (Nov 24, 12:55 PM)100% (Nov 16, 7:56 PM)30.49 "Hg (Nov 16, 7:56 PM)
Low11 °F (Nov 21, 6:58 AM)26% (Nov 19, 1:55 PM)29.05 "Hg (Nov 24, 4:03 AM)
Average30 °F77%30.01 "Hg
* Reported Nov 13 11:58 PM — Nov 28 11:58 PM, Sterling Heights, Weather by CustomWeather, © 2014

Note: Actual official high and low records may vary slightly from our data, if they occured in-between our weather recording intervals... More about our weather records

Advertising

Sterling Heights weather history for previous 24 hours

 ConditionsComfort  
Time TempWeatherWind HumidityBarometerVisibility
11:58 PM
Nov 28
30 °FMostly cloudy.9 mph91%30.11 "Hg10 mi
10:58 PM29 °FOvercast.10 mph91%30.12 "Hg10 mi
9:58 PM28 °FPartly cloudy.9 mph99%30.14 "Hg10 mi
9:04 PM27 °FPartly cloudy.10 mph100%30.10 "Hg10 mi
8:58 PM27 °FLight freezing rain. Partly cloudy.10 mph99%30.15 "Hg10 mi
8:01 PM27 °FLight snow. Ice fog.8 mph100%30.13 "Hg6 mi
7:56 PM27 °FLight snow. Ice fog.6 mph93%30.13 "Hg5 mi
6:55 PM25 °FLight snow. Mostly cloudy.5 mph99%30.19 "Hg3 mi
6:04 PM25 °FLight snow. Mostly cloudy.6 mph93%30.16 "Hg5 mi
5:56 PM25 °FLight snow. Mostly cloudy.8 mph88%30.20 "Hg2 mi
4:55 PM26 °FLight snow. Mostly cloudy.10 mph69%30.21 "Hg7 mi
3:56 PM27 °FCloudy.12 mph66%30.22 "Hg12 mi
2:55 PM28 °FCloudy.6 mph52%30.24 "Hg12 mi
1:55 PM27 °FPartly sunny.8 mph51%30.25 "Hg12 mi
12:55 PM25 °FMostly cloudy.8 mph51%30.28 "Hg10 mi
11:57 AM25 °FBroken clouds.6 mph50%30.30 "Hg10 mi
10:55 AM24 °FBroken clouds.7 mph54%30.35 "Hg10 mi
9:55 AM22 °FBroken clouds.3 mph56%30.35 "Hg10 mi
8:55 AM20 °FBroken clouds.3 mph64%30.36 "Hg10 mi
7:55 AM19 °FBroken clouds.5 mph66%30.37 "Hg10 mi
6:58 AM18 °FMostly cloudy.7 mph67%30.37 "Hg10 mi
5:58 AM18 °FOvercast.7 mph68%30.36 "Hg10 mi
4:58 AM18 °FClear.7 mph68%30.36 "Hg10 mi
3:58 AM18 °FClear.7 mph65%30.35 "Hg10 mi
2:58 AM20 °FPassing clouds.7 mph57%30.34 "Hg10 mi
1:58 AM22 °FLight freezing rain. Overcast.10 mph56%30.30 "Hg10 mi
Weather by CustomWeather, © 2014

See weather overviewHow to use our weather pages